Hourly Weather Kleczany

Today, 25 July, Sunday

Time Temperature Precipitation Wind Pressure Humidity
00:00 +18°C° 0 mm 2 mps 735 mmHg 71%
01:00 +18°C° 0 mm 2 mps 735 mmHg 72%
02:00 +17°C° 0 mm 2 mps 735 mmHg 72%
03:00 +17°C° 0 mm 2 mps 735 mmHg 73%
04:00 +17°C° 0 mm 2 mps 735 mmHg 73%
05:00 +19°C° 0 mm 2 mps 735 mmHg 70%
06:00 +21°C° 0 mm 2 mps 735 mmHg 66%
07:00 +24°C° 0 mm 2 mps 735 mmHg 61%
08:00 +25°C° 0 mm 3 mps 735 mmHg 55%
09:00 +27°C° 0 mm 3 mps 735 mmHg 49%
10:00 +29°C° 0 mm 4 mps 735 mmHg 42%
11:00 +27°C° 0.1 mm 4 mps 735 mmHg 49%
12:00 +26°C° 0.1 mm 3 mps 735 mmHg 56%
13:00 +24°C° 0.1 mm 3 mps 735 mmHg 64%
14:00 +24°C° 0 mm 3 mps 735 mmHg 66%
15:00 +24°C° 0 mm 2 mps 735 mmHg 68%
16:00 +23°C° 0 mm 2 mps 734 mmHg 70%
17:00 +23°C° 0 mm 2 mps 734 mmHg 72%
18:00 +21°C° 0 mm 2 mps 734 mmHg 75%
19:00 +21°C° 0 mm 2 mps 733 mmHg 77%
20:00 +20°C° 0 mm 2 mps 733 mmHg 78%
21:00 +19°C° 0 mm 2 mps 733 mmHg 79%
22:00 +19°C° 0 mm 2 mps 733 mmHg 81%
23:00 +19°C° 0.1 mm 2 mps 733 mmHg 82%

Tomorrow, 26 July, Monday

Time Temperature Precipitation Wind Pressure Humidity
00:00 +19°C° 0.1 mm 2 mps 733 mmHg 84%
01:00 +18°C° 0.1 mm 3 mps 733 mmHg 86%
02:00 +19°C° 0.1 mm 3 mps 733 mmHg 88%
03:00 +19°C° 0.1 mm 2 mps 733 mmHg 89%
04:00 +19°C° 0.1 mm 2 mps 733 mmHg 90%
05:00 +20°C° 0.3 mm 2 mps 733 mmHg 89%
06:00 +20°C° 0.3 mm 2 mps 733 mmHg 88%
07:00 +21°C° 0.3 mm 2 mps 733 mmHg 86%
08:00 +24°C° 0.1 mm 2 mps 734 mmHg 76%
09:00 +26°C° 0.1 mm 3 mps 734 mmHg 65%
10:00 +28°C° 0.1 mm 3 mps 734 mmHg 54%
11:00 +29°C° 0.2 mm 3 mps 734 mmHg 53%
12:00 +30°C° 0.2 mm 3 mps 733 mmHg 51%
13:00 +32°C° 0.2 mm 4 mps 733 mmHg 50%
14:00 +30°C° 0.2 mm 3 mps 733 mmHg 56%
15:00 +28°C° 0.2 mm 3 mps 733 mmHg 62%
16:00 +27°C° 0.2 mm 2 mps 733 mmHg 67%
17:00 +26°C° 0.6 mm 2 mps 733 mmHg 72%
18:00 +25°C° 0.6 mm 1 mps 733 mmHg 78%
19:00 +22°C° 0.6 mm 0 mps 733 mmHg 83%
20:00 +21°C° 0 mm 0 mps 733 mmHg 85%
21:00 +22°C° 0 mm 1 mps 734 mmHg 87%
22:00 +21°C° 0 mm 1 mps 734 mmHg 89%
23:00 +21°C° 0.1 mm 1 mps 733 mmHg 90%

Day after tomorrow, 27 July, Tuesday

Time Temperature Precipitation Wind Pressure Humidity
00:00 +21°C° 0.1 mm 1 mps 733 mmHg 91%
01:00 +19°C° 0.1 mm 2 mps 733 mmHg 92%
02:00 +19°C° 0.1 mm 2 mps 733 mmHg 93%
03:00 +20°C° 0.1 mm 1 mps 733 mmHg 93%
04:00 +19°C° 0.1 mm 1 mps 733 mmHg 94%
05:00 +21°C° 0 mm 1 mps 734 mmHg 91%
06:00 +22°C° 0 mm 1 mps 734 mmHg 87%
07:00 +23°C° 0 mm 1 mps 734 mmHg 84%
08:00 +25°C° 0.1 mm 1 mps 734 mmHg 77%
09:00 +26°C° 0.1 mm 1 mps 735 mmHg 71%
10:00 +28°C° 0.1 mm 2 mps 735 mmHg 64%
11:00 +28°C° 0.9 mm 2 mps 735 mmHg 68%
12:00 +27°C° 0.9 mm 2 mps 735 mmHg 71%
13:00 +27°C° 0.9 mm 2 mps 735 mmHg 74%
14:00 +27°C° 0.5 mm 2 mps 735 mmHg 72%
15:00 +28°C° 0.5 mm 2 mps 735 mmHg 69%
16:00 +28°C° 0.5 mm 2 mps 735 mmHg 67%
17:00 +27°C° 0.6 mm 1 mps 735 mmHg 72%
18:00 +25°C° 0.6 mm 1 mps 735 mmHg 77%
19:00 +24°C° 0.6 mm 1 mps 735 mmHg 83%
20:00 +23°C° 0 mm 1 mps 735 mmHg 84%
21:00 +22°C° 0 mm 1 mps 736 mmHg 86%
22:00 +21°C° 0 mm 1 mps 736 mmHg 88%
23:00 +21°C° 0 mm 1 mps 736 mmHg 88%

28 July, Wednesday

Time Temperature Precipitation Wind Pressure Humidity
00:00 +20°C° 0 mm 1 mps 736 mmHg 89%
01:00 +20°C° 0 mm 1 mps 736 mmHg 89%
02:00 +20°C° 0 mm 1 mps 736 mmHg 89%
03:00 +20°C° 0 mm 1 mps 735 mmHg 89%
04:00 +20°C° 0 mm 1 mps 735 mmHg 89%
05:00 +21°C° 0 mm 1 mps 735 mmHg 84%
06:00 +23°C° 0 mm 1 mps 735 mmHg 79%
07:00 +25°C° 0 mm 1 mps 735 mmHg 74%
08:00 +26°C° 0 mm 1 mps 735 mmHg 67%
09:00 +28°C° 0 mm 1 mps 735 mmHg 59%
10:00 +30°C° 0 mm 1 mps 735 mmHg 52%
11:00 +31°C° 0 mm 1 mps 735 mmHg 51%
12:00 +31°C° 0 mm 1 mps 734 mmHg 50%
13:00 +31°C° 0 mm 2 mps 734 mmHg 49%
14:00 +31°C° 0.3 mm 2 mps 734 mmHg 55%
15:00 +30°C° 0.3 mm 2 mps 734 mmHg 60%
16:00 +29°C° 0.3 mm 2 mps 733 mmHg 66%
17:00 +27°C° 0.2 mm 2 mps 733 mmHg 74%
18:00 +25°C° 0.2 mm 2 mps 733 mmHg 81%
19:00 +24°C° 0.2 mm 2 mps 733 mmHg 89%
20:00 +23°C° 0.3 mm 1 mps 734 mmHg 91%
21:00 +22°C° 0.3 mm 1 mps 734 mmHg 93%
22:00 +21°C° 0.3 mm 1 mps 734 mmHg 95%
23:00 +20°C° 3.2 mm 2 mps 734 mmHg 96%

29 July, Thursday

Time Temperature Precipitation Wind Pressure Humidity
00:00 +19°C° 3.2 mm 2 mps 734 mmHg 97%
01:00 +19°C° 3.2 mm 3 mps 735 mmHg 98%
02:00 +19°C° 1.5 mm 3 mps 735 mmHg 98%
03:00 +18°C° 1.5 mm 3 mps 735 mmHg 97%
04:00 +18°C° 1.5 mm 3 mps 736 mmHg 97%
05:00 +18°C° 0 mm 3 mps 736 mmHg 96%
06:00 +18°C° 0 mm 2 mps 736 mmHg 96%
07:00 +18°C° 0 mm 2 mps 736 mmHg 95%
08:00 +20°C° 0 mm 2 mps 737 mmHg 88%
09:00 +21°C° 0 mm 2 mps 737 mmHg 81%
10:00 +24°C° 0 mm 2 mps 737 mmHg 75%
11:00 +24°C° 0 mm 2 mps 737 mmHg 70%
12:00 +25°C° 0 mm 2 mps 737 mmHg 65%
13:00 +26°C° 0 mm 1 mps 736 mmHg 61%
14:00 +27°C° 0 mm 1 mps 736 mmHg 60%
15:00 +27°C° 0 mm 1 mps 736 mmHg 59%
16:00 +27°C° 0 mm 1 mps 736 mmHg 58%
17:00 +26°C° 0 mm 1 mps 735 mmHg 65%
18:00 +22°C° 0 mm 0 mps 735 mmHg 73%
19:00 +21°C° 0 mm 0 mps 735 mmHg 80%
20:00 +20°C° 0 mm 0 mps 735 mmHg 82%
21:00 +21°C° 0 mm 1 mps 735 mmHg 85%
22:00 +20°C° 0 mm 1 mps 735 mmHg 87%
23:00 +20°C° 0 mm 1 mps 735 mmHg 88%

30 July, Friday

Time Temperature Precipitation Wind Pressure Humidity
00:00 +19°C° 0 mm 1 mps 735 mmHg 89%
01:00 +19°C° 0 mm 1 mps 735 mmHg 90%
02:00 +19°C° 0 mm 1 mps 734 mmHg 90%
03:00 +19°C° 0 mm 1 mps 734 mmHg 90%
04:00 +18°C° 0 mm 2 mps 734 mmHg 90%
05:00 +20°C° 0 mm 2 mps 734 mmHg 83%
06:00 +23°C° 0 mm 2 mps 734 mmHg 76%
07:00 +25°C° 0 mm 2 mps 734 mmHg 69%
08:00 +27°C° 0 mm 2 mps 734 mmHg 62%
09:00 +29°C° 0 mm 1 mps 733 mmHg 54%
10:00 +31°C° 0 mm 1 mps 733 mmHg 46%
11:00 +32°C° 0 mm 1 mps 733 mmHg 44%
12:00 +33°C° 0 mm 1 mps 732 mmHg 42%
13:00 +33°C° 0 mm 1 mps 732 mmHg 39%
14:00 +32°C° 0 mm 1 mps 732 mmHg 45%
15:00 +31°C° 0 mm 1 mps 732 mmHg 51%
16:00 +30°C° 0 mm 1 mps 731 mmHg 57%
17:00 +28°C° 0.5 mm 1 mps 731 mmHg 67%
18:00 +26°C° 0.5 mm 1 mps 731 mmHg 77%
19:00 +24°C° 0.5 mm 1 mps 731 mmHg 87%
20:00 +23°C° 1 mm 1 mps 732 mmHg 90%
21:00 +22°C° 1 mm 1 mps 732 mmHg 93%
22:00 +21°C° 1 mm 1 mps 732 mmHg 96%
23:00 +21°C° 3.3 mm 1 mps 732 mmHg 97%
Show more